Location: Kernascl�den
(48.0062°N, 3.3198°W)
Time: 12:21:00
(UTC+00:00)

CZ-4B R/B - Pass Details

Date: 21 January 2021
Orbit: 808 x 882 km, 99.1° (Epoch: 06 March)

Event Time Altitude Azimuth Distance (km) Brightness Sun altitude
Rises 18:04:02 0° 177° (S) 3,406 6.5 -11.2°
Reaches altitude 10° 18:06:26 10° 182° (S) 2,485 5.9 -11.6°
Maximum altitude 18:11:50 54° 259° (W) 1,052 4.1 -12.4°
Drops below altitude 10° 18:17:22 10° 337° (NNW) 2,541 5.8 -13.3°
Sets 18:19:51 0° 342° (NNW) 3,489 6.5 -13.7°
